Tracking 19634 objects as of 21-May-2019
HD Live streaming from Space Station
objects crossing your sky now

FORMOSAT 3E

Track FORMOSAT 3E now!
10-day predictions
FORMOSAT 3E is classified as:


NORAD ID: 29051
Int'l Code: 2006-011E
Perigee: 752.8 km
Apogee: 853.4 km
Inclination: 72.0 °
Period: 100.8 minutes
Semi major axis: 7174 km
RCS: 0.58 m2 (medium)
Launch date: April 15, 2006
Source: Taiwan (Republic of China) (ROC)
Launch site: AIR FORCE WESTERN TEST RANGE (AFWTR)
aabbcc
Your satellite tracking list
Your tracking list is empty




NASA's NSSDC Master Catalog

Two Line Element Set (TLE):
1 29051U 06011E   19141.58106393  .00000080  00000-0  46980-4 0  9995
2 29051  72.0044 175.4046 0070092 244.8618 114.5236 14.28744266686077
Source of the keplerian elements: AFSPC